Weather History for Deer Park, WA

Change the Weather History Date:

Sunday, February 5, 2012

  Actual Average Record
Temperature  
Mean Temperature 35 °F 29 °F  
Max Temperature 45 °F 37 °F 45 °F (2012)
Min Temperature 24 °F 22 °F 0 °F (2014)
Degree Days  
Heating Degree Days 30 36  
Month to date heating degree days 157 180  
Since 1 July heating degree days 4357 4576  
Cooling Degree Days 0 0  
Month to date cooling degree days 0 0  
Year to date cooling degree days 0 0  
Moisture  
Dew Point 24 °F    
Average Humidity 65    
Maximum Humidity 85    
Minimum Humidity 45    
Precipitation  
Precipitation 0.00 in 0.07 in 0.41 in (2008)
Month to date precipitation 0.35 0.35  
Year to date precipitation 2.43 2.98  
Sea Level Pressure  
Sea Level Pressure 30.38 in    
Wind  
Wind Speed 5 mph (North)    
Max Wind Speed 13 mph    
Max Gust Speed 17 mph    
Visibility 10 miles    
Events      
T = Trace of Precipitation, MM = Missing Value Source: NWS Daily Summary

Daily Weather History Graph

Daily Weather History Graph

Search for Another Location

Airport:

Trip Planner

Search our weather history database for the weather conditions in past years. The results will help you decide how hot, cold, wet, or windy it might be!

Date:

Astronomy

Feb. 05, 2012 Rise Set
Actual Time 7:12 AM PST 4:55 PM PST
Civil Twilight 6:39 AM PST 5:28 PM PST
Nautical Twilight 6:02 AM PST 6:05 PM PST
Astronomical Twilight 5:26 AM PST 6:41 PM PST
Moon 2:54 PM PST (2/5) 5:32 AM PST (2/5)
Length of Visible Light 10h 49m
Length of Day
9h 43m
Waxing Gibbous, 95% of the Moon is Illuminated
Feb 5
Waxing Gibbous
Feb 7
Full
Feb 14
Last Quarter
Feb 21
New
Feb 29
First Quarter

Hourly Weather History & Observations

Time (PST) Temp. Windchill Dew Point Humidity Pressure Visibility Wind Dir Wind Speed Gust Speed Precip Events Conditions
12:53 AM 32.0 °F 24.2 °F 25.0 °F 75% 30.38 in 10.0 mi NNE 9.2 mph - N/A   Clear
1:53 AM 30.9 °F 26.2 °F 25.0 °F 79% 30.39 in 10.0 mi North 4.6 mph - N/A   Clear
2:53 AM 27.0 °F - 23.0 °F 85% 30.40 in 10.0 mi Calm Calm - N/A   Clear
3:53 AM 28.9 °F - 24.1 °F 82% 30.39 in 10.0 mi Calm Calm - N/A   Clear
4:53 AM 27.0 °F 21.6 °F 23.0 °F 85% 30.40 in 10.0 mi NNW 4.6 mph - N/A   Clear
5:53 AM 26.1 °F 18.4 °F 21.9 °F 84% 30.41 in 10.0 mi North 6.9 mph - N/A   Clear
6:53 AM 27.0 °F 21.6 °F 23.0 °F 85% 30.42 in 10.0 mi NNE 4.6 mph - N/A   Clear
7:53 AM 24.1 °F - 19.9 °F 84% 30.44 in 10.0 mi Calm Calm - N/A   Clear
8:53 AM 30.0 °F 24.1 °F 23.0 °F 75% 30.44 in 10.0 mi North 5.8 mph - N/A   Clear
9:53 AM 34.0 °F 28.0 °F 24.1 °F 67% 30.43 in 10.0 mi NNE 6.9 mph - N/A   Clear
10:53 AM 37.9 °F 32.7 °F 25.0 °F 60% 30.41 in 10.0 mi NNE 6.9 mph - N/A   Clear
11:53 AM 39.9 °F 35.1 °F 26.1 °F 58% 30.39 in 10.0 mi NNE 6.9 mph - N/A   Clear
12:53 PM 41.0 °F 35.8 °F 26.1 °F 55% 30.37 in 10.0 mi NE 8.1 mph - N/A   Clear
1:53 PM 42.1 °F 39.2 °F 26.1 °F 53% 30.35 in 10.0 mi North 4.6 mph - N/A   Clear
2:53 PM 44.1 °F - 25.0 °F 47% 30.35 in 10.0 mi Calm Calm - N/A   Clear
3:53 PM 44.1 °F - 26.1 °F 49% 30.33 in 10.0 mi Calm Calm - N/A   Clear
4:53 PM 37.0 °F 34.5 °F 25.0 °F 62% 30.34 in 10.0 mi NNE 3.5 mph - N/A   Clear
5:53 PM 30.9 °F - 23.0 °F 72% 30.35 in 10.0 mi Calm Calm - N/A   Clear
6:53 PM 28.9 °F 23.9 °F 23.0 °F 78% 30.35 in 10.0 mi North 4.6 mph - N/A   Clear
7:53 PM 30.9 °F 23.5 °F 24.1 °F 76% 30.35 in 10.0 mi North 8.1 mph - N/A   Clear
8:53 PM 30.0 °F 21.7 °F 23.0 °F 75% 30.35 in 10.0 mi North 9.2 mph - N/A   Clear
9:53 PM 30.0 °F 21.7 °F 23.0 °F 75% 30.34 in 10.0 mi North 9.2 mph - N/A   Clear
10:53 PM 30.9 °F 21.7 °F 23.0 °F 72% 30.33 in 10.0 mi NNE 11.5 mph - N/A   Clear
11:53 PM 30.0 °F 22.4 °F 23.0 °F 75% 30.33 in 10.0 mi NNE 8.1 mph - N/A   Clear